Showing default

DODGE 1, 2867

Orbit data source: Space-Track

DODGE 1, 2867 is a payload satellite owned by USN NAVAIR (US) in GEO that was launched on Sat, 01 Jul 1967 UTC via a TITAN IIIC launch vehicle from the Air Force Eastern Test Range (AFETR). Payload-class satellites include a variety of spacecraft equipped with specific instruments for various scientific and technological missions. These include communications satellites like Starlink; space stations such as the ISS; scientific satellites like the Hubble; Earth observation satellites from companies like Planet Labs, Umbra, and HawkEye 360; GPS; miniature CubeSats for education and research; and military/defense satellites.

Loading next visibility...
Identifier
2867, 1967-066F
Orbit
GEO
Country
Flag of USUS
Related business
Manufacturer
APL
Mission
Spacecraft
Bus & Motor
DODGE, Unknown motor
Mass
195 kg wet, 195 kg dry
Launch date (UTC)
1967-07-01 (59 years ago)
Launch vehicle
TITAN IIIC
Launch site
Air Force Eastern Test Range (AFETR)
Object type
Payload
Rocket body
Debris
Shape & HBR
Unknown
Radar Cross Section
Large (>1 m²)

Expand to show TLE details & history
Last TLE update: 8 hours ago

TLE from 8 hours ago
0 DODGE 1
1  2867U 67066F   26121.44848751 -.00000042  00000-0  00000+0 0  9997
2  2867   2.3875  99.1664 0053292 191.9913 264.5787  1.09167207132872
Epoch: 2026-05-01T10:45Z
TLE epoch observation values (Epoch: 2026-05-01T10:45:49.320Z)
Latitude
2.35489°
Longitude
174.29725°
Altitude
33,483.48 km
Speed
3.161 km/s
True Right ascension
13h 00m 32s
True Declination
2° 21' 09"
Sunlit
Object was in daylight at epoch
Visualization orbit readout
Latitude
Unknown
Longitude
Unknown
Altitude
Unknown
Speed
Unknown
Apparent Right ascension
Unknown
Apparent Declination
Unknown
Sunlit
N/A
Visualization observer readout
Local Sidereal Time
02:43:10
Azimuth
Unknown
Elevation
Unknown
Doppler factor
Unknown
Orbital elements
Apogee altitude
33,677.252 km
Perigee altitude
33,252.589 km
Semi-major axis
39,843.058 km
Eccentricity
0.00533
Inclination
2.3875°
RAAN
99.1664°
Arg. of periapsis
191.9913°
True anomaly
263.97114°
Mean anomaly
264.5787°
Eccentric anomaly
264.27488°
Mean motion
0.27291 °/min
Orbital period
1,319.13 mins
BSTAR
0
Loading maneuver chart data...
Computing Atmospheric mass density...
Loading historical data...
Loading historical data...
Loading historical data...
Loading historical data...
Loading historical data...
Loading historical data...
Loading historical data...

Documentation

Showing up to 5 results
|